{"data":{"norad_id":49284,"epoch":"2026-09-19T23:00:11.577312Z","epoch_age_seconds":72485,"freshness":"FRESH","line1":"1 49284U 21090F   26262.95846733  .00000053  00000+0  98718-4 0  9996","line2":"2 49284  87.9143 255.5364 0002029  91.4302 268.7064 13.20770274243064","mean_motion":13.20770274,"eccentricity":0.0002029,"inclination_deg":87.9143,"raan_deg":255.5364,"arg_perigee_deg":91.4302,"mean_anomaly_deg":268.7064,"bstar":9.8718e-5,"rev_number":24306,"period_min":109.02728720862,"perigee_km":1180.2453381561,"apogee_km":1183.3131521684,"semimajor_km":7559.9162451622,"source":"CELESTRAK","updated_at":"2026-09-20T09:00:44.669277Z"}}